CZ-6A DEB, 55528

Orbit data source: Space-Track

CZ-6A DEB, 55528 is space debris in SSO originally from a launch on Fri, 11 Nov 2022 UTC launched from the Taiyaun Space Center, China (TSC). Debris objects in space refer to the collection of defunct objects orbiting the Earth. Examples of debris include non-operational satellites, rocket bodies, and fragments generated from explosions, collisions, or faulty payload assembly.

Loading next visibility...
Identifier
55528, 2022-151YA
Orbit
SSO
Country
Flag of CNCN / PRC
Related business
Manufacturer
SAST
Mission
Spacecraft
Bus & Motor
Unknown
Mass
Unknown
Launch date (UTC)
2022-11-11 (4 years ago)
Launch vehicle
Unknown
Launch site
Taiyaun Space Center, China (TSC)
Object type
Payload
Rocket body
Debris
Shape & HBR
Unknown shape, 0.1 m
Radar Cross Section
Small (<0.1 m²)

Expand to show TLE details & history
Last TLE update: 1 week ago

TLE from 1 week ago
0 CZ-6A DEB
1 55528U 22151YA  26166.40322894  .00002930  00000-0  71258-3 0  9999
2 55528  98.6317 219.4948 0068696 255.5846 103.7718 14.52191389183774
Epoch: 2026-06-15T09:40Z
TLE epoch observation values (Epoch: 2026-06-15T09:40:38.980Z)
Latitude
0.00003°
Longitude
170.64226°
Altitude
733.384 km
Speed
7.482 km/s
True Right ascension
14h 37m 58s
True Declination
0° 00' 00"
Sunlit
Object was in full shadow at epoch
Visualization orbit readout
Latitude
Unknown
Longitude
Unknown
Altitude
Unknown
Speed
Unknown
Apparent Right ascension
Unknown
Apparent Declination
Unknown
Sunlit
N/A
Visualization observer readout
Local Sidereal Time
21:28:19
Azimuth
Unknown
Elevation
Unknown
Doppler factor
Unknown
Orbital elements
Apogee altitude
764.343 km
Perigee altitude
666.881 km
Semi-major axis
7,093.749 km
Eccentricity
0.00687
Inclination
98.6317°
RAAN
219.4948°
Arg. of periapsis
255.5846°
True anomaly
104.53479°
Mean anomaly
103.7718°
Eccentric anomaly
104.15345°
Mean motion
3.6327 °/min
Orbital period
99.1 mins
BSTAR
0.00071258
Loading maneuver chart data...
Computing Atmospheric mass density...
Loading historical data...
Loading historical data...
Loading historical data...
Loading historical data...
Loading historical data...
Loading historical data...
Loading historical data...

Documentation

Showing up to 5 results
|